Location: Newark
(45.5000°N, 11.4167°E)
Time: 08:06:17
(UTC+00:00)

Vanguard 2 - Pass Details

Date: 24 August 2019
Orbit: 554 x 2937 km, 32.9° (Epoch: 16 September)

Event Time Altitude Azimuth Distance (km) Brightness Sun altitude
Rises 18:29:47 0° 261° (W) 5,322 13.0 -4.6°
Reaches altitude 10° 18:36:10 10° 237° (WSW) 4,852 12.1 -5.6°
Maximum altitude 18:41:19 13° 215° (SW) 4,956 11.8 -6.4°
Drops below altitude 10° 18:47:04 10° 194° (SSW) 5,487 11.8 -7.4°
Sets 18:55:45 0° 171° (S) 6,748 12.0 -8.7°
